Flag for India Weather past 2 weeks in Faridabad, Haryana, India

Now
97 °F

Haze.


Feels Like: 100 °F
Forecast: 77 / 96 °F
Wind: 9 mph from West

Location: New Delhi Palam Airport

Current Time: Sep 22, 2014 at 4:22:27 PM

Latest Report: Sep 22, 2014 at 3:30 PM


Visibility: 3 mi

Pressure: 29.68 "Hg

Humidity: 37%

Dew point: 66 °F

Location of FaridabadLocation

Historic Weather in Faridabad — Graph

°F

Faridabad temperature yesterday

Maximum temperature yesterday: 95 °F (at 2:30 PM)
Minimum temperature yesterday: 77 °F (at 6:30 AM)
Average temperature yesterday: 87 °F

Past Weeks' High & Low Weather Summary

 TemperatureHumidityPressure
High97 °F (Sep 7, 4:00 PM)100% (Sep 11, 7:00 AM)29.80 "Hg (Sep 11, 7:00 AM)
Low73 °F (Sep 15, 1:30 AM)34% (Sep 20, 4:30 PM)29.59 "Hg (Sep 9, 3:30 PM)
Average86 °F69%29.69 "Hg
* Reported Sep 7 2:30 PM — Sep 22 2:30 PM, Faridabad, Weather by CustomWeather, © 2014

Note: Actual official high and low records may vary slightly from our data, if they occured in-between our weather recording intervals... More about our weather records

Advertising

Faridabad weather history for previous 24 hours

 ConditionsComfort  
Time TempWeatherWind HumidityBarometerVisibility
2:30 PM
Sep 22
95 °FHaze.12 mph39%29.68 "Hg3 mi
2:00 PM95 °FHaze.12 mph39%29.68 "Hg3 mi
1:30 PM93 °FHaze.12 mph44%29.71 "Hg3 mi
1:00 PM93 °FHaze.12 mph47%29.71 "Hg3 mi
12:30 PM91 °FHaze.12 mph46%29.74 "Hg3 mi
12:00 PM90 °FHaze.12 mph49%29.74 "Hg3 mi
11:30 AM90 °FHaze.12 mph46%29.74 "Hg3 mi
11:00 AM88 °FHaze.12 mph49%29.77 "Hg3 mi
10:30 AM86 °FHaze.12 mph52%29.77 "Hg3 mi
10:00 AM86 °FHaze.14 mph52%29.77 "Hg2 mi
9:30 AM84 °FHaze.14 mph58%29.77 "Hg2 mi
9:00 AM84 °FHaze.9 mph58%29.77 "Hg2 mi
8:30 AM82 °FHaze.9 mph62%29.74 "Hg2 mi
8:00 AM81 °FHaze.7 mph66%29.74 "Hg2 mi
7:30 AM79 °FHaze.7 mph70%29.74 "Hg2 mi
7:00 AM77 °FHaze.7 mph74%29.71 "Hg2 mi
6:30 AM77 °FHaze.7 mph74%29.71 "Hg2 mi
5:30 AM79 °FHaze.7 mph74%29.71 "Hg2 mi
5:00 AM79 °FHaze.8 mph74%29.71 "Hg2 mi
4:30 AM79 °FHaze.8 mph74%29.68 "Hg2 mi
4:00 AM79 °FHaze.7 mph74%29.68 "Hg2 mi
3:30 AM81 °FHaze.8 mph70%29.68 "Hg2 mi
3:00 AM81 °FHaze.5 mph70%29.68 "Hg2 mi
2:30 AM81 °FHaze.No wind70%29.68 "Hg2 mi
1:30 AM82 °FHaze.No wind66%29.68 "Hg2 mi
1:00 AM84 °FHaze.3 mph62%29.71 "Hg2 mi
12:30 AM84 °FHaze.5 mph62%29.71 "Hg2 mi
12:00 AM86 °FHaze.No wind59%29.71 "Hg2 mi
11:30 PM
Sep 21
86 °FHaze.No wind55%29.71 "Hg2 mi
11:00 PM86 °FHaze.3 mph55%29.71 "Hg2 mi
10:30 PM88 °FHaze.3 mph52%29.71 "Hg2 mi
10:00 PM88 °FHaze.3 mph52%29.71 "Hg2 mi
9:30 PM88 °FHaze.5 mph52%29.71 "Hg2 mi
9:00 PM90 °FHaze.5 mph49%29.68 "Hg2 mi
8:30 PM90 °FHaze.6 mph46%29.68 "Hg2 mi
8:00 PM90 °FHaze.5 mph43%29.65 "Hg2 mi
7:30 PM90 °FHaze.3 mph43%29.65 "Hg2 mi
7:00 PM91 °FHaze.6 mph41%29.65 "Hg3 mi
6:30 PM91 °FHaze.7 mph41%29.65 "Hg3 mi
6:00 PM93 °FHaze.12 mph39%29.62 "Hg3 mi
5:30 PM93 °FHaze.12 mph39%29.62 "Hg3 mi
5:00 PM93 °FHaze.12 mph39%29.62 "Hg3 mi
4:30 PM93 °FHaze.9 mph36%29.62 "Hg3 mi
4:00 PM95 °FHaze.12 mph34%29.62 "Hg3 mi
Weather by CustomWeather, © 2014

See weather overviewHow to use our weather pages